Location: Cointrin
(46.2167°N, 6.1167°E)
Time: 12:14:08
(UTC+00:00)

AO-85 - Pass Details

Date: 11 December 2023
Orbit: 516 x 753 km, 64.8° (Epoch: 04 January)

Event Time Altitude Azimuth Distance (km) Brightness Sun altitude
Rises 18:54:09 0° 322° (NW) 2,895 ? -30.9°
Reaches altitude 10° 18:56:21 10° 320° (NW) 2,021 ? -31.3°
Enters shadow 18:58:08 24° 317° (NW) 1,349 ? -31.6°
